Home   Weather   Barcelona   Past weeks
Flag for Spain

Past Weather in Barcelona, Barcelona, Spain — Yesterday and Last 2 Weeks

Now
46 °F

Sunny.


Feels Like: 41 °F
Forecast: 69 / 45 °F
Wind: 12 mph from Northwest

Location: Barcelona Airport

Current Time: Mar 22, 2019 at 8:06:44 am

Latest Report: Mar 22, 2019 at 7:30 am


Visibility: 10 mi

Pressure: 30.33 "Hg

Humidity: 57%

Dew Point: 32 °F

Location of BarcelonaLocation

Past Weather in Barcelona — Graph

°F

Barcelona Temperature Yesterday

Maximum temperature yesterday: 61 °F (at 12:00 pm)
Minimum temperature yesterday: 43 °F (at 6:00 am)
Average temperature yesterday: 52 °F

High & Low Weather Summary for the Past Weeks

 TemperatureHumidityPressure
High66 °F (Mar 7, 2:00 pm)100% (Mar 17, 2:30 am)30.45 "Hg (Mar 17, 2:30 am)
Low43 °F (Mar 21, 6:00 am)30% (Mar 7, 12:30 pm)29.83 "Hg (Mar 7, 6:00 am)
Average54 °F68%30.22 "Hg
* Reported Mar 7 6:00 am — Mar 22 6:30 am, Barcelona. Weather by CustomWeather, © 2019

Note: Actual official high and low records may vary slightly from our data, if they occured in-between our weather recording intervals... More about our weather records

Advertising

Barcelona Weather History for the Previous 24 Hours

Scroll right to see more
 ConditionsComfort  
Time TempWeatherWind HumidityBarometerVisibility
6:30 am
Fri, Mar 22
46 °FClear.12 mph62%30.33 "Hg10 mi
6:00 am46 °FClear.10 mph62%30.33 "Hg10 mi
5:30 am46 °FClear.12 mph62%30.33 "Hg10 mi
5:00 am46 °FClear.10 mph62%30.30 "Hg10 mi
4:30 am46 °FClear.12 mph62%30.30 "Hg10 mi
4:00 am46 °FClear.12 mph62%30.30 "Hg10 mi
3:30 am46 °FClear.12 mph66%30.33 "Hg10 mi
3:00 am46 °FClear.12 mph66%30.33 "Hg10 mi
2:30 am48 °FClear.13 mph62%30.33 "Hg10 mi
1:30 am48 °FClear.12 mph66%30.33 "Hg10 mi
1:00 am48 °FClear.12 mph66%30.33 "Hg10 mi
12:30 am48 °FClear.10 mph66%30.36 "Hg10 mi
12:00 am48 °FClear.8 mph66%30.36 "Hg10 mi
11:00 pm
Thu, Mar 21
50 °FClear.6 mph62%30.36 "Hg10 mi
10:30 pm50 °FClear.6 mph62%30.36 "Hg10 mi
10:00 pm52 °FClear.6 mph62%30.36 "Hg10 mi
9:30 pm54 °FPassing clouds.5 mph58%30.36 "HgN/A
9:00 pm55 °FPassing clouds.5 mph59%30.36 "HgN/A
8:30 pm55 °FPassing clouds.5 mph59%30.33 "HgN/A
8:00 pm55 °FPassing clouds.6 mph59%30.33 "HgN/A
7:30 pm55 °FClear.5 mph59%30.33 "Hg10 mi
7:00 pm55 °FSunny.6 mph59%30.33 "Hg10 mi
6:30 pm57 °FPassing clouds.8 mph51%30.33 "HgN/A
6:00 pm57 °FSunny.8 mph51%30.33 "Hg10 mi
5:30 pm57 °FPassing clouds.10 mph51%30.30 "HgN/A
5:00 pm59 °FPassing clouds.10 mph42%30.30 "HgN/A
4:30 pm59 °FSunny.9 mph45%30.30 "Hg10 mi
4:00 pm59 °FSunny.13 mph45%30.33 "Hg10 mi
3:30 pm59 °FPassing clouds.14 mph45%30.33 "HgN/A
3:00 pm61 °FPassing clouds.15 mph42%30.33 "HgN/A
2:30 pm61 °FPassing clouds.16 mph39%30.33 "HgN/A
2:00 pm61 °FPassing clouds.18 mph42%30.36 "HgN/A
1:30 pm61 °FPassing clouds.21 mph39%30.36 "HgN/A
1:00 pm61 °FPassing clouds.18 mph36%30.36 "HgN/A
12:30 pm61 °FPassing clouds.17 mph34%30.36 "HgN/A
12:00 pm61 °FPassing clouds.18 mph31%30.36 "HgN/A
11:30 am59 °FPassing clouds.13 mph34%30.39 "HgN/A
11:00 am59 °FSunny.13 mph36%30.36 "Hg10 mi
10:30 am57 °FPassing clouds.8 mph39%30.39 "HgN/A
10:00 am55 °FSunny.10 mph47%30.39 "Hg10 mi
9:30 am50 °FSunny.12 mph54%30.36 "Hg10 mi
9:00 am48 °FSunny.13 mph58%30.36 "Hg10 mi
8:30 am45 °FSunny.13 mph66%30.36 "Hg10 mi
8:00 am45 °FSunny.13 mph66%30.36 "Hg10 mi
Weather by CustomWeather, © 2019

See weather overview